TimeEST,TemperatureF,Dew PointF,Humidity,Sea Level PressureIn,VisibilityMPH,Wind Direction,Wind SpeedMPH,Gust SpeedMPH,PrecipitationIn,Events,Conditions,WindDirDegrees,DateUTC
12:53 AM,32.0,28.9,88,30.42,5.0,Calm,Calm,-,N/A,,Clear,0,2012-11-19 05:53:00
1:53 AM,30.0,28.0,92,30.40,4.0,Calm,Calm,-,N/A,,Clear,0,2012-11-19 06:53:00
2:53 AM,30.0,27.0,88,30.41,4.0,Calm,Calm,-,N/A,,Clear,0,2012-11-19 07:53:00
3:53 AM,28.9,26.1,89,30.39,4.0,Calm,Calm,-,N/A,,Clear,0,2012-11-19 08:53:00
4:10 AM,28.4,24.8,86,30.37,2.0,Calm,Calm,-,N/A,,Clear,0,2012-11-19 09:10:00
4:22 AM,28.4,24.8,86,30.36,2.5,Calm,Calm,-,N/A,,Clear,0,2012-11-19 09:22:00
4:29 AM,28.4,26.6,93,30.36,4.0,Calm,Calm,-,N/A,,Clear,0,2012-11-19 09:29:00
4:53 AM,28.0,26.1,92,30.38,4.0,Calm,Calm,-,N/A,,Clear,0,2012-11-19 09:53:00
5:53 AM,28.9,26.1,89,30.39,3.0,Calm,Calm,-,N/A,,Clear,0,2012-11-19 10:53:00
6:53 AM,28.9,27.0,92,30.38,4.0,Calm,Calm,-,N/A,,Clear,0,2012-11-19 11:53:00
7:21 AM,30.2,28.4,93,30.36,2.5,Calm,Calm,-,N/A,,Clear,0,2012-11-19 12:21:00
7:42 AM,28.4,26.6,93,30.36,3.0,Calm,Calm,-,N/A,,Clear,0,2012-11-19 12:42:00
7:53 AM,30.0,27.0,88,30.38,3.0,NNE,3.5,-,N/A,,Clear,20,2012-11-19 12:53:00
8:03 AM,30.2,26.6,86,30.36,2.5,Calm,Calm,-,N/A,,Clear,0,2012-11-19 13:03:00
8:22 AM,30.2,28.4,93,30.36,3.0,Calm,Calm,-,N/A,,Clear,0,2012-11-19 13:22:00
8:45 AM,32.0,28.4,87,30.36,2.0,Calm,Calm,-,N/A,,Clear,0,2012-11-19 13:45:00
8:53 AM,32.0,30.0,92,30.39,2.0,Calm,Calm,-,N/A,,Clear,0,2012-11-19 13:53:00
9:20 AM,33.8,32.0,93,30.36,2.5,Calm,Calm,-,N/A,,Clear,0,2012-11-19 14:20:00
9:43 AM,35.6,33.8,93,30.35,3.0,Calm,Calm,-,N/A,,Clear,0,2012-11-19 14:43:00
9:53 AM,37.0,33.1,86,30.38,4.0,Calm,Calm,-,N/A,,Clear,0,2012-11-19 14:53:00
10:53 AM,45.0,34.0,65,30.38,10.0,Calm,Calm,-,N/A,,Clear,0,2012-11-19 15:53:00
11:53 AM,48.9,32.0,52,30.36,10.0,Calm,Calm,-,N/A,,Clear,0,2012-11-19 16:53:00
12:53 PM,54.0,33.1,45,30.32,10.0,Calm,Calm,-,N/A,,Clear,0,2012-11-19 17:53:00
1:53 PM,55.0,30.9,40,30.29,10.0,Calm,Calm,-,N/A,,Clear,0,2012-11-19 18:53:00
2:53 PM,55.0,32.0,42,30.28,10.0,ESE,3.5,-,N/A,,Clear,110,2012-11-19 19:53:00
3:53 PM,55.9,30.0,37,30.26,10.0,SE,4.6,-,N/A,,Clear,130,2012-11-19 20:53:00
4:53 PM,55.0,30.0,38,30.26,10.0,Calm,Calm,-,N/A,,Clear,0,2012-11-19 21:53:00
5:53 PM,50.0,30.9,48,30.25,10.0,Calm,Calm,-,N/A,,Clear,0,2012-11-19 22:53:00
6:53 PM,46.0,34.0,63,30.25,10.0,Calm,Calm,-,N/A,,Clear,0,2012-11-19 23:53:00
7:53 PM,46.9,34.0,61,30.24,10.0,East,3.5,-,N/A,,Clear,100,2012-11-20 00:53:00
8:53 PM,45.0,34.0,65,30.23,10.0,ESE,3.5,-,N/A,,Clear,110,2012-11-20 01:53:00
9:53 PM,46.0,34.0,63,30.22,10.0,Calm,Calm,-,N/A,,Scattered Clouds,0,2012-11-20 02:53:00
10:53 PM,46.0,34.0,63,30.20,10.0,SSE,3.5,-,N/A,,Clear,160,2012-11-20 03:53:00
11:53 PM,46.9,35.1,63,30.18,10.0,SSE,3.5,-,N/A,,Partly Cloudy,150,2012-11-20 04:53:00